Wind_Speed
12 13 15 16 17 18 20 20 21 21 21 21 22 23 26 27 29 32 34 37 40 44 47 51 55 58 63 67 71 74 78 81 84 87 89 89 87 84 83 81 80 76 71 67
13 14 16 17 18 18 19 19 20 20 21 22 22 23 26 28 30 33 36 39 42 46 49 53 57 61 65 69 72 76 79 82 86 89 89 87 84 82 80 78 75 71 67 64
13 14 16 17 17 18 18 19 20 21 22 23 23 23 27 29 31 34 37 41 44 48 51 55 59 63 66 70 73 76 79 83 87 88 87 84 81 79 77 75 71 67 65 63
12 14 15 16 17 18 19 19 21 22 23 24 26 25 27 30 33 36 39 42 46 49 53 57 60 64 67 71 74 77 80 84 87 86 84 82 79 78 76 73 69 66 64 64
12 14 15 16 17 18 19 20 21 22 23 24 26 27 29 32 35 38 41 44 47 51 54 58 61 65 68 71 74 78 81 84 85 84 82 79 78 77 75 71 68 66 66 68
12 14 15 17 18 19 20 20 21 22 23 24 27 29 31 34 36 39 42 45 49 52 55 58 62 66 69 71 75 78 81 83 83 82 79 78 76 75 73 70 68 67 69 71
13 15 16 18 19 21 22 23 24 24 25 26 28 29 32 34 37 40 44 47 50 53 56 59 63 66 69 72 75 78 80 81 81 79 77 76 75 75 73 71 71 71 73 74
15 16 18 20 21 22 24 26 27 28 28 26 27 28 31 34 38 42 45 48 50 53 56 60 63 66 69 71 74 77 80 80 79 77 75 74 74 74 72 72 73 75 76 75
16 18 20 21 22 24 26 27 29 30 30 28 28 31 33 37 40 43 46 48 51 54 56 60 63 66 69 71 74 77 78 78 77 75 73 72 73 73 72 73 74 76 76 73
16 17 20 22 24 26 28 30 31 32 35 34 32 33 36 39 41 44 46 49 51 54 57 60 64 66 68 71 74 76 77 77 75 73 71 71 72 72 72 73 74 75 75 71
14 17 19 22 25 27 30 31 33 33 34 36 37 35 39 40 42 45 47 49 52 54 57 61 64 66 68 70 73 75 76 75 73 71 70 70 70 71 72 72 74 74 73 69
12 15 18 21 25 28 30 33 34 35 36 37 38 38 41 41 43 45 47 49 52 55 58 61 64 66 67 70 72 74 74 73 71 69 68 68 69 70 71 71 72 73 71 67
10 13 16 20 24 27 30 33 35 37 38 39 40 40 42 43 44 46 48 50 53 55 58 61 63 65 67 69 71 72 72 71 69 67 66 67 67 68 69 70 71 72 70 66
9 12 15 19 22 25 29 33 36 39 41 42 43 44 44 46 46 47 49 51 53 56 58 61 63 65 67 68 70 71 70 69 67 66 65 65 66 67 68 69 70 70 70 66
9 12 15 18 21 24 28 31 35 39 42 44 45 47 48 48 48 49 50 51 54 56 58 61 63 64 66 67 69 69 69 67 66 64 64 64 64 65 67 68 69 69 69 67
9 12 15 18 20 23 25 29 33 38 42 45 48 49 51 51 51 50 50 52 54 56 58 61 62 64 65 66 68 68 67 66 64 63 63 62 62 63 65 66 67 68 67 67
12 13 14 17 20 23 25 29 32 36 41 46 49 52 53 54 53 52 52 53 54 56 59 61 62 63 64 65 66 66 66 64 63 62 61 61 61 62 63 64 65 66 66 66
15 16 17 19 21 25 29 31 33 36 41 45 49 53 55 56 56 55 54 54 55 57 59 60 61 62 63 64 65 65 65 64 62 61 60 60 60 61 62 63 63 64 65 65
19 19 20 22 24 25 28 32 35 38 40 44 49 53 56 58 59 58 57 56 56 57 58 60 61 62 62 63 64 64 64 63 61 60 59 59 59 60 60 61 62 63 63 64
23 22 23 25 27 29 31 34 37 40 43 46 50 53 57 60 60 60 59 57 56 57 58 60 61 61 62 62 63 63 63 62 61 59 58 58 58 59 59 60 60 61 62 62
27 25 25 26 28 30 32 35 38 40 44 47 50 53 56 59 61 61 60 58 57 57 58 60 61 61 61 61 62 62 62 61 60 58 57 57 57 58 58 59 59 59 60 61
30 29 28 28 29 32 33 36 38 40 43 46 49 52 56 59 61 62 61 59 58 57 58 59 60 60 60 60 61 61 61 61 59 58 57 56 56 57 57 57 57 57 57 58
33 32 31 30 30 33 34 36 38 41 43 46 49 52 55 58 61 63 62 61 59 58 58 59 60 60 59 59 60 60 61 60 58 57 56 56 56 56 56 56 55 55 55 55
35 34 34 32 30 34 35 37 39 42 44 46 49 52 54 58 60 63 63 61 60 58 58 58 59 59 59 59 59 59 60 59 57 56 55 55 55 55 56 55 54 53 53 53
37 36 36 35 34 35 35 38 40 42 44 46 49 52 54 57 59 62 63 62 61 59 58 58 58 58 58 58 58 58 59 58 57 55 54 54 54 54 54 55 54 53 52 53
36 36 38 38 38 39 37 39 42 44 45 47 49 51 54 56 58 61 62 62 61 59 58 57 57 58 57 57 57 57 57 57 56 54 53 52 52 52 53 53 54 54 52 51
Wind_Direction
328 328 329 330 330 328 326 324 323 322 322 322 323 322 320 320 319 318 318 320 321 322 323 324 326 327 328 328 327 327 327 326 324 323 322 322 322 322 321 321 320 318 316 314
331 332 332 331 330 329 327 325 324 324 325 324 325 325 321 322 321 321 321 323 324 325 326 328 329 330 330 329 329 328 327 326 325 324 324 325 325 325 324 324 323 320 317 314
338 337 334 332 332 331 330 329 328 328 328 327 327 328 322 324 323 324 325 327 327 328 329 331 332 332 331 331 330 329 328 327 327 327 327 328 327 327 327 326 324 322 318 315
345 342 339 338 337 336 336 334 332 331 330 330 328 330 325 327 327 328 329 330 330 331 332 333 333 333 332 331 331 330 330 329 329 329 330 330 330 330 330 329 327 325 321 317
354 351 349 347 345 344 342 340 336 333 332 331 328 330 330 330 330 331 332 333 333 333 334 334 334 333 333 332 332 332 331 331 331 331 332 332 333 333 332 331 330 327 324 320
12 7 2 358 354 351 347 344 341 337 336 334 333 333 331 332 333 333 335 336 335 335 335 335 335 334 334 334 333 333 333 333 333 333 334 335 335 335 335 334 332 330 327 324
29 22 15 9 4 359 354 350 347 346 344 342 338 336 333 334 335 336 338 337 336 335 335 336 335 335 335 335 335 335 334 335 335 336 336 337 338 338 338 337 336 335 333 330
38 31 25 20 14 8 2 356 352 349 348 347 342 338 336 337 338 339 339 337 336 336 336 337 337 337 337 336 336 336 336 336 337 338 339 339 340 341 341 341 341 340 339 338
41 37 31 27 21 15 9 4 358 352 351 351 349 341 342 342 342 340 339 338 337 337 337 338 338 338 338 338 338 338 338 338 339 340 341 342 343 344 345 345 345 345 344 345
43 38 34 29 23 19 14 9 4 359 354 353 353 345 345 343 342 341 339 338 338 338 338 339 339 339 339 339 339 339 340 340 341 342 343 344 346 347 348 348 349 349 350 350
40 37 32 27 24 20 16 13 9 4 360 354 352 349 345 343 342 341 340 339 338 339 339 340 341 341 341 341 341 341 342 342 343 344 345 347 349 350 351 352 353 354 354 355
34 31 29 26 22 19 15 13 10 8 4 359 354 350 346 345 342 341 340 339 339 340 341 342 342 342 342 342 342 343 343 344 345 346 347 349 351 353 354 355 356 358 358 359
22 23 21 21 19 16 13 11 10 9 6 2 357 353 348 346 343 342 341 341 340 341 342 343 343 343 343 344 344 344 345 346 347 348 349 351 353 355 356 358 359 1 2 2
-0 6 9 12 12 11 10 8 8 8 7 4 360 356 351 348 345 344 343 342 341 342 343 344 344 344 345 345 345 346 347 348 348 350 351 353 354 357 359 0 2 3 5 6
340 350 357 2 4 5 5 5 4 5 5 3 1 357 354 350 347 345 344 343 342 343 344 345 345 345 346 346 347 348 348 349 350 351 353 355 356 358 0 2 4 5 7 8
319 335 344 349 354 357 359 1 1 1 2 2 1 359 356 353 349 346 345 343 343 344 345 346 346 346 347 347 348 349 350 350 351 353 355 356 358 360 2 4 5 7 8 10
300 316 328 336 343 347 352 356 358 358 359 0 360 358 357 354 351 348 346 344 344 345 345 346 347 347 348 349 349 350 351 352 353 354 356 358 359 1 3 5 6 8 9 11
289 303 315 326 334 342 346 348 352 356 356 357 358 357 356 355 352 349 347 346 345 345 346 347 347 348 349 350 350 351 352 353 354 356 357 359 0 2 4 5 7 9 10 12
283 295 306 317 325 334 338 343 347 351 353 354 355 356 355 354 353 350 348 347 345 345 346 347 348 349 350 351 351 352 353 354 355 357 358 359 1 3 5 6 7 9 11 12
278 288 299 310 319 328 334 338 342 345 349 351 352 353 353 353 352 351 349 347 345 345 346 347 349 350 351 351 352 353 354 355 356 357 359 360 2 4 5 6 7 9 11 12
274 283 293 302 312 319 326 332 337 342 345 347 349 350 351 351 351 350 349 347 346 345 346 347 349 350 351 352 352 353 354 356 357 358 359 0 2 4 5 6 8 9 10 12
273 280 287 296 306 313 321 326 332 337 341 343 346 347 348 349 350 350 349 347 346 345 346 347 349 350 351 352 353 354 355 356 357 358 359 1 3 4 6 6 8 9 10 12
270 277 284 293 302 307 314 319 325 331 336 339 342 344 345 346 348 348 348 347 346 346 346 347 348 350 351 352 353 354 355 356 357 358 359 1 2 4 6 7 7 9 10 11
268 274 281 288 296 300 308 314 320 326 331 335 338 341 343 344 345 347 347 347 346 345 346 347 348 349 350 352 353 354 355 356 357 358 359 0 1 3 5 6 7 8 9 11
266 272 278 284 290 294 302 307 314 320 326 331 334 337 339 341 343 345 346 346 346 345 345 346 348 349 350 351 352 353 354 355 357 358 359 0 1 2 3 4 6 7 8 10
265 272 277 282 287 292 298 303 310 316 321 326 330 333 336 338 340 342 344 345 345 345 345 346 347 348 350 351 352 353 354 355 356 357 358 360 1 2 3 4 4 5 7 9
Height
5882 5881 5878 5876 5873 5871 5868 5865 5862 5859 5856 5854 5850 5847 5843 5838 5834 5829 5823 5818 5811 5804 5796 5786 5776 5765 5754 5741 5728 5714 5699 5684 5669 5652 5634 5617 5598 5580 5562 5545 5528 5514 5500 5489
5881 5879 5876 5874 5871 5869 5866 5863 5860 5857 5854 5851 5848 5844 5838 5834 5829 5824 5818 5812 5805 5797 5788 5778 5767 5756 5744 5731 5717 5702 5687 5671 5654 5636 5618 5599 5581 5564 5546 5530 5513 5498 5484 5473
5879 5878 5874 5872 5869 5867 5864 5861 5857 5854 5850 5847 5844 5841 5835 5830 5824 5819 5813 5806 5798 5789 5780 5769 5758 5747 5734 5721 5706 5691 5675 5658 5640 5621 5603 5586 5569 5551 5534 5519 5502 5486 5471 5458
5878 5875 5873 5870 5867 5864 5861 5858 5854 5850 5847 5843 5839 5836 5831 5825 5819 5814 5807 5800 5791 5782 5772 5761 5750 5738 5725 5711 5696 5680 5663 5645 5626 5607 5589 5571 5554 5538 5521 5504 5488 5473 5457 5443
5877 5874 5871 5868 5865 5862 5859 5856 5852 5848 5844 5840 5835 5831 5827 5821 5814 5808 5801 5793 5784 5774 5764 5753 5742 5729 5716 5701 5685 5669 5651 5632 5613 5594 5575 5559 5541 5524 5508 5491 5476 5460 5445 5428
5876 5873 5870 5867 5863 5860 5857 5854 5851 5846 5842 5838 5832 5826 5822 5815 5809 5803 5795 5786 5777 5767 5757 5746 5734 5721 5706 5691 5675 5658 5640 5621 5602 5583 5565 5548 5531 5514 5497 5481 5465 5449 5431 5412
5875 5872 5869 5866 5862 5859 5855 5852 5848 5843 5839 5834 5828 5822 5818 5811 5804 5797 5789 5780 5770 5760 5750 5739 5726 5712 5697 5681 5665 5648 5630 5611 5593 5574 5556 5539 5521 5503 5485 5468 5451 5434 5415 5394
5875 5872 5869 5865 5862 5858 5853 5849 5845 5840 5835 5831 5825 5819 5815 5807 5799 5790 5783 5774 5764 5754 5743 5732 5718 5704 5689 5673 5657 5640 5621 5603 5585 5566 5548 5530 5512 5494 5476 5458 5439 5419 5398 5376
5874 5872 5868 5864 5861 5857 5852 5847 5843 5837 5832 5828 5822 5816 5809 5801 5794 5786 5777 5768 5758 5748 5737 5725 5711 5697 5681 5666 5649 5632 5614 5595 5577 5559 5541 5524 5506 5488 5469 5450 5430 5409 5387 5364
5874 5871 5868 5864 5860 5856 5851 5846 5841 5834 5827 5822 5819 5811 5805 5796 5789 5781 5772 5763 5753 5742 5731 5718 5704 5689 5674 5658 5641 5624 5605 5587 5569 5551 5534 5517 5500 5481 5463 5444 5424 5403 5381 5359
5873 5871 5868 5864 5859 5855 5850 5845 5839 5833 5826 5819 5813 5810 5801 5793 5784 5776 5767 5757 5747 5736 5724 5711 5697 5682 5667 5651 5634 5617 5599 5581 5563 5546 5529 5513 5495 5477 5459 5440 5420 5399 5377 5357
5873 5870 5867 5863 5859 5853 5849 5843 5838 5832 5826 5818 5811 5808 5797 5789 5780 5771 5762 5752 5741 5730 5718 5704 5690 5675 5660 5645 5628 5611 5593 5575 5559 5542 5525 5509 5492 5475 5457 5438 5419 5398 5377 5357
5872 5870 5866 5863 5860 5854 5848 5842 5836 5830 5824 5816 5809 5806 5793 5785 5776 5767 5757 5747 5736 5724 5711 5698 5684 5669 5654 5639 5623 5606 5588 5571 5554 5538 5522 5506 5490 5473 5456 5437 5418 5399 5379 5360
5871 5868 5866 5862 5857 5852 5847 5841 5834 5828 5821 5815 5807 5800 5791 5781 5772 5762 5752 5741 5730 5718 5706 5693 5679 5664 5649 5634 5618 5601 5584 5567 5551 5536 5520 5504 5488 5472 5455 5437 5419 5401 5382 5364
5869 5866 5863 5859 5855 5850 5845 5840 5833 5826 5819 5812 5805 5796 5787 5777 5767 5757 5747 5736 5725 5713 5701 5688 5674 5659 5644 5629 5613 5596 5580 5564 5549 5534 5518 5503 5487 5471 5455 5438 5421 5403 5386 5368
5867 5864 5861 5858 5854 5849 5845 5839 5832 5824 5817 5810 5801 5793 5783 5774 5763 5753 5742 5731 5720 5709 5696 5683 5669 5654 5640 5624 5609 5593 5577 5562 5547 5532 5517 5501 5486 5471 5456 5440 5423 5407 5390 5373
5864 5862 5859 5856 5851 5848 5843 5837 5830 5823 5814 5807 5798 5790 5780 5770 5759 5749 5738 5727 5716 5704 5692 5679 5665 5650 5636 5621 5606 5590 5575 5560 5545 5530 5515 5501 5486 5472 5457 5442 5427 5411 5395 5379
5861 5858 5855 5853 5850 5844 5841 5833 5827 5820 5812 5804 5795 5786 5776 5766 5755 5745 5734 5723 5712 5700 5688 5675 5661 5647 5632 5618 5603 5588 5573 5558 5544 5529 5515 5501 5487 5473 5458 5444 5430 5415 5400 5385
5856 5854 5851 5848 5844 5841 5836 5829 5822 5816 5810 5801 5792 5782 5773 5762 5752 5741 5730 5719 5707 5696 5684 5671 5657 5643 5629 5615 5600 5586 5572 5557 5543 5529 5515 5502 5488 5474 5460 5447 5433 5419 5405 5391
5851 5849 5847 5843 5838 5835 5832 5825 5817 5811 5804 5796 5787 5778 5769 5759 5749 5739 5726 5715 5703 5692 5680 5667 5654 5640 5626 5612 5598 5585 5570 5556 5543 5529 5516 5503 5489 5475 5462 5449 5436 5422 5409 5396
5846 5844 5842 5838 5833 5830 5826 5819 5813 5807 5801 5792 5783 5775 5766 5756 5746 5735 5723 5711 5699 5688 5676 5663 5650 5637 5624 5610 5597 5583 5569 5556 5542 5529 5517 5504 5490 5477 5464 5451 5438 5426 5413 5400
5839 5838 5836 5833 5830 5827 5821 5814 5809 5804 5796 5788 5780 5771 5762 5753 5742 5731 5719 5708 5696 5684 5673 5660 5648 5635 5622 5608 5595 5582 5569 5555 5542 5529 5517 5505 5492 5479 5466 5454 5442 5430 5418 5406
5832 5831 5829 5828 5827 5820 5815 5810 5805 5799 5792 5784 5776 5768 5759 5749 5739 5728 5716 5704 5693 5681 5669 5657 5645 5632 5619 5606 5593 5580 5567 5554 5541 5529 5517 5505 5493 5481 5469 5458 5446 5435 5423 5412
5824 5823 5821 5820 5820 5814 5809 5804 5799 5793 5786 5779 5772 5764 5755 5745 5735 5725 5713 5701 5690 5678 5666 5654 5642 5630 5617 5605 5592 5579 5566 5553 5541 5529 5517 5505 5494 5483 5471 5461 5450 5439 5428 5418
5817 5815 5813 5812 5811 5807 5805 5798 5793 5787 5781 5774 5767 5759 5750 5741 5732 5721 5709 5698 5686 5675 5663 5652 5640 5628 5616 5603 5591 5578 5565 5553 5541 5529 5517 5506 5495 5483 5472 5462 5452 5442 5431 5420
5810 5808 5805 5804 5802 5798 5797 5792 5787 5781 5775 5769 5762 5754 5746 5737 5727 5717 5706 5695 5683 5672 5660 5649 5637 5626 5614 5601 5589 5577 5565 5552 5541 5529 5518 5508 5497 5486 5475 5464 5453 5442 5433 5423